Location: Cheb
(50.0670°N, 12.3670°E)
Time: 21:04:52
(UTC+01:00)

ISS - Visible Passes

Search period start: 24 March 2019 00:00
Search period end: 03 April 2019 01:00
Orbit: 408 x 411 km, 51.6° (Epoch: 24 March)

Date Brightness Start Highest point End Pass type
(mag) Time Alt. Az. Time Alt. Az. Time Alt. Az.
24 Mar -3.2 19:32:05 10° SW 19:35:10 38° SSE 19:37:09 18° E visible
24 Mar -1.8 21:08:20 10° W 21:09:56 26° W 21:09:56 26° W visible
25 Mar -3.9 20:17:40 10° WSW 20:20:58 89° SSE 20:21:38 54° ENE visible
25 Mar -0.4 21:54:24 10° W 21:54:24 10° W 21:54:24 10° W visible
26 Mar -3.8 19:27:02 10° WSW 19:30:19 67° SSE 19:33:13 13° ENE visible
26 Mar -2.5 21:03:41 10° W 21:05:59 39° WNW 21:05:59 39° WNW visible
27 Mar -3.6 20:12:57 10° W 20:16:15 69° N 20:17:27 35° ENE visible
27 Mar -0.7 21:49:40 10° WNW 21:50:13 14° WNW 21:50:13 14° WNW visible
28 Mar -3.7 19:22:12 10° WSW 19:25:31 81° NNW 19:28:50 10° ENE visible
28 Mar -3.0 20:58:58 10° WNW 21:01:37 51° NW 21:01:37 51° NW visible
29 Mar -3.5 20:08:13 10° W 20:11:30 64° N 20:12:58 30° ENE visible
29 Mar -1.0 21:44:52 10° WNW 21:45:43 17° WNW 21:45:43 17° WNW visible
30 Mar -3.5 19:17:27 10° W 19:20:44 65° N 19:24:02 10° E visible
30 Mar -3.5 20:54:09 10° WNW 20:57:01 64° WNW 20:57:01 64° WNW visible
31 Mar -3.7 21:03:24 10° WNW 21:06:43 73° N 21:08:18 28° E visible
31 Mar -1.1 22:40:05 10° W 22:41:03 17° W 22:41:03 17° W visible
01 Apr -3.5 20:12:38 10° W 20:15:56 65° N 20:19:13 10° E visible
01 Apr -3.5 21:49:17 10° WNW 21:52:20 57° SW 21:52:20 57° SW visible
02 Apr -3.8 20:58:30 10° WNW 21:01:50 82° SSW 21:03:36 25° ESE visible
02 Apr -1.1 22:35:28 10° W 22:36:21 15° WSW 22:36:21 15° WSW visible
